Regional Weather Roundup
Issued by NWS

Home | Current Version | Previous Version | Text Only | Print | Product List | Glossary Off
Versions: 1 2 3 4 5 6 7 8 9 10 11 12 13 14 15 16 17 18 19 20 21 22 23 24 25 26 27 28 29 30 31 32 33 34 35 36 37 38 39 40 41 42 43 44 45 46 47 48 49 50

000
ASUS43 KMKX 280041
RWRWI

WISCONSIN REGIONAL WEATHER ROUNDUP
NATIONAL WEATHER SERVICE MILWAUKEE/SULLIVAN WI
800 PM CDT WED MAY 27 2015

NOTE: "FAIR" INDICATES FEW OR NO CLOUDS BELOW 12,000 FEET WITH NO
SIGNIFICANT WEATHER AND/OR OBSTRUCTIONS TO VISIBILITY.

WIZ001-002-006>008-014>016-023>028-280200-
NORTHWEST WISCONSIN

CITY           SKY/WX    TMP DP  RH WIND       PRES   REMARKS
SUPERIOR ARPT  CLEAR     80  52  37 NE3       29.91R HX  80
ASHLAND        MOCLDY    71  61  70 S5        29.93R
HAYWARD        MOCLDY    68  59  73 S7        29.96S
SIREN          CLEAR     80  45  29 W9        29.95S
CUMBERLAND     PTCLDY    75  54  46 W12       29.96S
RICE LAKE      CLEAR     79  53  41 SW6       29.98R
CHETEK         CLEAR     78  56  46 SW3       29.96S
LADYSMITH      TSTM      59  54  84 E7        30.02R
EAU CLAIRE     CLEAR     76  58  53 W6        29.96S
MENOMONIE      PTCLDY    79  57  45 SW9       29.97S HX  80
NEW RICHMOND   PTCLDY    78  53  42 W7        29.97S
OSCEOLA        PTCLDY    79  55  43 W6        29.98S
$$

WIZ003>005-009-010-017-018-280200-
NORTH CENTRAL WISCONSIN

CITY           SKY/WX    TMP DP  RH WIND       PRES   REMARKS
MANITOWISH WTR CLOUDY    66  53  61 CALM      29.97R
ARBOR VITAE    CLOUDY    62  56  82 CALM      29.98R
WOODRUFF       CLOUDY    62  56  82 CALM      29.98R
RHINELANDER    LGT RAIN  60  57  89 SW12      29.99R
EAGLE RIVER    MOCLDY    64  53  65 CALM      29.97R
LAND O LAKES   MOCLDY    70  52  53 W7        29.98R
PHILLIPS       PTCLDY    63  57  81 N6        29.98F THUNDER
TOMAHAWK       PTCLDY    70  56  60 N9        30.00R
MEDFORD        PTCLDY    71  60  68 SW3       30.00R
MERRILL        PTCLDY    72  60  65 W8        29.99R
$$

WIZ029-030-035-036-043>047-280200-
CENTRAL WISCONSIN

CITY           SKY/WX    TMP DP  RH WIND       PRES   REMARKS
WAUSAU         CLEAR     73  59  61 W8        29.97R
MOSINEE        PTCLDY    73  61  64 W8        30.00R
MARSHFIELD     CLEAR     74  58  57 W9        29.99R
STEVENS POINT  CLEAR     73  57  56 W7        30.00R
WAUPACA        CLEAR     77  58  52 SW7       29.99R
WAUTOMA        CLEAR     77  58  51 W9        30.00R
WISC RAPIDS    CLEAR     76  56  49 W7        30.00R
CAMP DOUGLAS   CLEAR     75  63  64 W10       30.00R
$$

WIZ011>013-019>022-031-037>040-048>050-280200-
NORTHEAST WISCONSIN

CITY           SKY/WX    TMP DP  RH WIND       PRES   REMARKS
ANTIGO         CLEAR     69  60  73 W8        30.00R
SHAWANO        CLEAR     76  59  54 W7        29.98R
OCONTO         PTCLDY    66  54  64 SE7       29.98R
STURGEON BAY   PTCLDY    61  54  77 SW8       30.01S
GREEN BAY      CLEAR     76  60  57 W10       29.98R
MANITOWOC      CLEAR     74  59  59 SW7       30.00R
APPLETON       PTCLDY    73  55  53 W9        29.99R
CLINTONVILLE   PTCLDY    75  57  53 W6        29.98R
OSHKOSH        CLEAR     75  58  55 VRB3      29.99R
$$

WIZ032>034-041-042-053>061-280200-
SOUTHWEST WISCONSIN

CITY           SKY/WX    TMP DP  RH WIND       PRES   REMARKS
LA CROSSE      CLEAR     80  60  50 SW6       29.98S HX  81
SPARTA         CLEAR     77  55  46 W5        30.01R
VIROQUA        CLEAR     75  59  57 SW7       30.03S
BOSCOBEL       CLEAR     78  58  49 SW6       30.01F
PRAIRIE DU CHI CLEAR     77  56  48 SW5       30.01S
PLATTEVILLE    CLEAR     76  58  54 SW7       30.04S
$$

WIZ056-057-062-063-064-067-068-280200-
SOUTH CENTRAL WISCONSIN

CITY           SKY/WX    TMP DP  RH WIND       PRES   REMARKS
REEDSBURG      CLEAR     74  60  59 SW7       30.01S
BARABOO/DELLS  CLEAR     74  56  55 W9        30.02S
LONE ROCK      CLEAR     77  58  51 W6        30.02S
MINERAL POINT  CLEAR     75  55  50 SW6       30.05R
MADISON        CLEAR     75  55  49 CALM      30.02S
MIDDLETON      CLEAR     75  55  49 SW6       30.03S
WATERTOWN      CLEAR    N/A N/A N/A W6        30.02S
MONROE         CLEAR     73  55  53 W9        30.05S
JANESVILLE     CLEAR     75  54  46 W7        30.03F
$$

WIZ051-052-058>065-066-070>072-280200-
SOUTHEAST WISCONSIN

CITY           SKY/WX    TMP DP  RH WIND       PRES   REMARKS
MILWAUKEE      CLEAR     67  55  65 SE8       30.03S
WAUKESHA       CLEAR     70  54  56 W6        30.04S
MILWAUKEE/TIMM CLEAR     73  52  46 W8        30.03S
RACINE         CLEAR     67  55  65 SE6       30.05R
BURLINGTON     CLEAR     70  54  55 W3        30.04S
KENOSHA        CLEAR     69  57  65 SE6       30.04S
FOND DU LAC    CLEAR     74  57  55 SW10      30.01R
SHEBOYGAN      CLEAR     72  58  61 SW9       30.00R
WEST BEND      CLEAR     72  54  53 W8        30.02S
JUNEAU         CLEAR     73  58  59 SW9       30.03S
$$

LSZ147-162-280200-
LAKE SUPERIOR

STATION/POSITION TIME  TEMP    WIND        PRES    WAVE
                       AIR SEA DIR/SP/G            HT/PER
                 (UTC) (F)     (DEG/KT/KT) (MB)    (FT/S)
W MID LAKE BUOY  2350   53 37  240/ 12/ 14   N/A     1/ 4
DEVILS ISLAND    0000   68     220/  7/  8   N/A
PORT WING        2340   71     160/  2/  4   N/A
$$

LMZ867-665-643>646-280200-
LAKE MICHIGAN

STATION/POSITION TIME  TEMP    WIND        PRES    WAVE
                       AIR SEA DIR/SP/G            HT/PER
                 (UTC) (F)     (DEG/KT/KT) (MB)    (FT/S)
CHAMBERS ISLAND  2300   59     190/  5/  6   N/A
N MID LAKE BUOY  2350   43 36  180/ 10/ 12   N/A     1/ 5
NORTHPORT PIER   2300   65     240/  6/ 15   N/A
SISTER BAY       2318   59     240/ 15/ 17   N/A
ALGOMA LAKESHORE 2308          260/ 12/ 14   N/A
KEWAUNEE LAKESHO 0000   74      40/  8/ 11   N/A
SHEBOYGAN LAKESH 0000   63     180/ 19/ 20   N/A
PORT WASHINGTON  2240   64     190/  4/  6   N/A
ATWATER BUOY     0000   55 49  180/  8/ 10   N/A
MILWAUKEE LAKESH 0000   60     150/ 11/ 11   N/A
S MID LAKE BUOY  2350   47 38  270/  4/  6   N/A     1
KENOSHA   LAKESH 0000   65     180/  5/  7   N/A
$$

TC  - TEMPERATURE IN CELSIUS
VSB - VISIBILITY IN STATUTE MILES
WCI - WIND CHILL INDEX
HX  - HEAT INDEX



USA.gov is the U.S. government's official web portal to all federal, state and local government web resources and services.